El Paso, TX

9:25 AM MDT on June 26, 2017 (GMT -0600)
El Paso International

Weather History for KELP - March, 2014

Change the Weather History Date:

Tuesday, March 25, 2014

  Actual Average Record
Temperature  
Mean Temperature 60 °F 59 °F  
Max Temperature 71 °F 73 °F 90 °F (2012)
Min Temperature 49 °F 45 °F 30 °F (1969)
Degree Days  
Heating Degree Days 5 7  
Month to date heating degree days 167 234  
Since 1 July heating degree days 1955 2337  
Cooling Degree Days 0 0  
Month to date cooling degree days 8 0  
Year to date cooling degree days 15 0  
Growing Degree Days 9 (Base 50)    
Moisture  
Dew Point 28 °F    
Average Humidity 30    
Maximum Humidity 39    
Minimum Humidity 20    
Precipitation  
Precipitation T in 0.01 in 0.45 in (1926)
Month to date precipitation 0.18 0.22  
Year to date precipitation 0.18 1.08  
Snow  
Snow 0.00 in - - ()
Month to date snowfall 0.0  
Since 1 July snowfall T  
Snow Depth 0.00 in    
Sea Level Pressure  
Sea Level Pressure 29.91 in    
Wind  
Wind Speed 11 mph (ENE)    
Max Wind Speed 22 mph    
Max Gust Speed 30 mph    
Visibility 10 miles    
Events Rain , Thunderstorm    
T = Trace of Precipitation, MM = Missing Value Source: NWS Daily Summary

Daily Weather History Graph

Daily Weather History Graph

Search for Another Location

Airport or City:

Trip Planner

Search our weather history database for the weather conditions in past years. The results will help you decide how hot, cold, wet, or windy it might be!

Date:

Astronomy

Mar. 25, 2014 Rise Set
Actual Time 7:02 AM MDT 7:20 PM MDT
Civil Twilight 6:38 AM MDT 7:44 PM MDT
Nautical Twilight 6:09 AM MDT 8:13 PM MDT
Astronomical Twilight 5:41 AM MDT 8:42 PM MDT
Moon 3:08 AM MDT (3/25) 2:11 PM MDT (3/25)
Length of Visible Light 13h 06m
Length of Day
12h 17m
Waning Crescent, 31% of the Moon is Illuminated
Mar 25
Waning Crescent
Mar 30
New
Apr 7
First Quarter
Apr 15
Full
Apr 22
Last Quarter

Hourly Weather History & Observations

Time (MDT) Temp. Dew Point Humidity Pressure Visibility Wind Dir Wind Speed Gust Speed Precip Events Conditions
12:51 AM 55.0 °F 16.0 °F 22% 29.96 in 10.0 mi ESE 3.5 mph - N/A   Partly Cloudy
1:51 AM 57.0 °F 17.1 °F 21% 29.94 in 10.0 mi Calm Calm - N/A   Partly Cloudy
2:51 AM 51.1 °F 16.0 °F 25% 29.94 in 10.0 mi East 3.5 mph - N/A   Partly Cloudy
3:51 AM 53.1 °F 16.0 °F 23% 29.94 in 10.0 mi NE 11.5 mph - N/A   Partly Cloudy
4:51 AM 53.1 °F 21.9 °F 30% 29.94 in 10.0 mi NNE 8.1 mph - N/A   Partly Cloudy
5:51 AM 53.1 °F 19.9 °F 27% 29.96 in 10.0 mi North 6.9 mph - N/A   Partly Cloudy
6:51 AM 50.0 °F 19.9 °F 31% 29.99 in 10.0 mi North 9.2 mph - N/A   Clear
7:51 AM 51.1 °F 21.9 °F 32% 30.02 in 10.0 mi North 6.9 mph - N/A   Clear
8:51 AM 54.0 °F 24.1 °F 31% 30.03 in 10.0 mi ENE 10.4 mph - N/A   Clear
9:51 AM 57.0 °F 25.0 °F 29% 30.02 in 10.0 mi East 8.1 mph - N/A   Partly Cloudy
10:51 AM 60.1 °F 25.0 °F 26% 30.01 in 10.0 mi East 15.0 mph 18.4 mph N/A   Partly Cloudy
11:51 AM 63.0 °F 26.1 °F 25% 29.99 in 10.0 mi East 13.8 mph - N/A   Partly Cloudy
12:51 PM 64.4 °F 26.6 °F 24% 30.08 in 10.0 mi East 13.8 mph 19.6 mph N/A   Scattered Clouds
1:51 PM 66.2 °F 26.6 °F 23% 30.03 in 10.0 mi ESE 15.0 mph 19.6 mph N/A   Mostly Cloudy
2:51 PM 69.8 °F 26.6 °F 20% 29.85 in 10.0 mi ESE 12.7 mph 24.2 mph N/A   Mostly Cloudy
3:51 PM 70.0 °F 28.0 °F 21% 29.80 in 10.0 mi ENE 10.4 mph - N/A   Mostly Cloudy
4:51 PM 69.1 °F 28.9 °F 22% 29.80 in 10.0 mi East 13.8 mph - N/A   Overcast
5:51 PM 69.1 °F 35.1 °F 29% 29.78 in 10.0 mi SE 10.4 mph - 0.00 in Rain Light Rain
6:51 PM 66.0 °F 34.0 °F 30% 29.80 in 10.0 mi East 13.8 mph 23.0 mph 0.00 in   Mostly Cloudy
7:51 PM 60.1 °F 35.1 °F 39% 29.81 in 10.0 mi East 20.7 mph 26.5 mph N/A   Scattered Clouds
8:51 PM 59.0 °F 37.9 °F 46% 29.82 in 10.0 mi East 9.2 mph - N/A Thunderstorm Thunderstorm
9:35 PM 57.9 °F 39.0 °F 49% 29.95 in 10.0 mi NE 11.5 mph - N/A   Mostly Cloudy
9:51 PM 57.9 °F 39.9 °F 51% 29.82 in 10.0 mi East 11.5 mph - N/A   Scattered Clouds
10:51 PM 57.0 °F 39.9 °F 53% 29.78 in 10.0 mi East 19.6 mph - 0.00 in Rain Light Rain
11:21 PM 57.0 °F 41.0 °F 55% 29.91 in 10.0 mi Variable 5.8 mph - 0.00 in Thunderstorm Thunderstorm
11:51 PM 57.0 °F 42.1 °F 57% 29.77 in 10.0 mi Variable 3.5 mph - 0.00 in   Scattered Clouds